FW9611 Weather Reports


Display with metric or nautical units.
time (UTC)temp
F
wind
direction
speed
MPH
gust
MPH
rain 1hr
in
rain 24hr
in
rain mn
in
humidity
%
barometer
mb
20260505114059 60 360 6.0 12.0 0.00 0.27 0.27 95 1005.4
20260505113558 60 333 5.0 13.0 0.00 0.27 0.27 95 1005.4
20260505113100 60 13 7.0 13.0 0.00 0.27 0.27 96 1005.2
20260505112556 60 10 7.0 11.0 0.00 0.27 0.27 96 1005.3
20260505112056 60 348 4.0 8.0 0.00 0.27 0.27 96 1005.1
20260505111559 60 284 3.0 8.0 0.01 0.27 0.27 96 1005.0
20260505111058 60 267 3.0 8.0 0.01 0.27 0.27 96 1004.9
20260505110557 60 240 3.0 8.0 0.01 0.27 0.27 96 1004.6
20260505102100 60 175 7.0 10.0 0.03 0.27 0.27 96 1005.0
20260505101602 60 188 3.0 6.0 0.02 0.26 0.26 96 1005.2
20260505101057 60 166 2.0 6.0 0.02 0.26 0.26 96 1005.2
20260505100557 60 185 4.0 6.0 0.04 0.26 0.26 96 1005.3
20260505100059 60 152 0.0 5.0 0.05 0.26 0.26 96 1005.4
20260505095559 60 162 2.0 5.0 0.06 0.26 0.26 96 1005.3
20260505095058 60 183 2.0 8.0 0.06 0.25 0.25 96 1005.5
20260505094606 60 177 3.0 9.0 0.07 0.25 0.25 96 1005.4
20260505094057 60 185 6.0 9.0 0.09 0.25 0.25 95 1005.6
20260505093557 60 175 1.0 4.0 0.10 0.25 0.25 95 1005.8
20260505093058 60 0 2.0 6.0 0.11 0.24 0.24 95 1005.9
20260505092556 60 142 2.0 9.0 0.13 0.24 0.24 94 1006.0
20260505092056 60 247 5.0 9.0 0.14 0.24 0.24 94 1006.4
20260505091600 61 221 4.0 7.0 0.15 0.24 0.24 93 1006.5
20260505091055 61 197 2.0 9.0 0.16 0.24 0.24 93 1006.3
20260505090556 61 0 1.0 10.0 0.16 0.22 0.22 93 1006.1
20260505090101 61 251 5.0 13.0 0.15 0.20 0.20 93 1006.2
20260505085556 61 292 6.0 16.0 0.17 0.20 0.20 93 1006.1
20260505085100 61 291 9.0 16.0 0.17 0.19 0.19 93 1006.3
20260505084555 61 360 8.0 15.0 0.17 0.18 0.18 92 1006.3
20260505084056 61 265 6.0 11.0 0.15 0.16 0.16 92 1006.3
20260505083556 61 281 5.0 10.0 0.15 0.15 0.15 91 1006.2
20260505083056 61 263 6.0 12.0 0.13 0.13 0.13 91 1006.2
20260505082556 61 255 5.0 14.0 0.11 0.11 0.11 90 1006.0
20260505082056 61 223 8.0 20.0 0.10 0.10 0.10 90 1006.0
20260505081603 61 247 10.0 20.0 0.09 0.09 0.09 89 1006.1
20260505081057 61 275 10.0 15.0 0.07 0.07 0.07 88 1006.0
20260505080556 62 360 7.0 15.0 0.06 0.06 0.06 87 1006.1
20260505080055 62 238 8.0 15.0 0.05 0.05 0.05 86 1006.2
20260505075600 62 234 9.0 15.0 0.03 0.03 0.03 85 1006.1
20260505075056 62 251 10.0 15.0 0.02 0.02 0.02 84 1006.2
20260505074609 62 230 8.0 11.0 0.01 0.01 0.01 84 1006.0
20260505074056 63 239 7.0 9.0 0.01 0.01 0.01 81 1005.6
20260505073556 63 250 5.0 11.0 0.00 0.00 0.00 81 1005.7
20260505073057 63 224 7.0 11.0 0.00 0.00 0.00 80 1005.7
20260505072556 63 246 6.0 9.0 0.00 0.00 0.00 79 1005.9
20260505072056 63 232 5.0 8.0 0.00 0.00 0.00 78 1005.5
20260505071556 63 211 5.0 8.0 0.00 0.00 0.00 77 1005.5
20260505071056 63 208 3.0 5.0 0.00 0.00 0.00 77 1005.5
20260505070557 64 239 3.0 5.0 0.00 0.00 0.00 76 1005.5
20260505070056 64 163 1.0 4.0 0.00 0.00 0.00 75 1005.5
20260505065557 64 182 1.0 6.0 0.00 0.00 0.00 75 1005.5
20260505065057 64 156 2.0 6.0 0.00 0.00 0.00 75 1005.8
20260505064556 64 182 3.0 5.0 0.00 0.00 0.00 75 1005.8
20260505064057 64 173 2.0 6.0 0.00 0.00 0.00 75 1006.0
20260505063557 64 180 4.0 7.0 0.00 0.00 0.00 75 1006.0
20260505063100 64 174 4.0 8.0 0.00 0.00 0.00 75 1006.0
20260505062556 64 180 4.0 8.0 0.00 0.00 0.00 75 1006.1
20260505062055 64 171 4.0 8.0 0.00 0.00 0.00 75 1006.1
20260505061625 64 171 4.0 7.0 0.00 0.00 0.00 74 1006.2
20260505061057 65 175 4.0 7.0 0.00 0.00 0.00 74 1006.3
20260505060558 64 182 4.0 7.0 0.00 0.00 0.00 74 1006.3
20260505060059 64 200 3.0 6.0 0.00 0.00 0.00 74 1006.4
20260505055557 65 205 3.0 5.0 0.00 0.00 0.00 74 1006.4
20260505055057 65 218 3.0 4.0 0.00 0.00 0.00 74 1006.3
20260505054618 65 209 2.0 4.0 0.00 0.00 0.00 74 1006.2
20260505054057 65 202 1.0 4.0 0.00 0.00 0.00 74 1006.2
20260505053556 65 186 1.0 4.0 0.00 0.00 0.00 73 1006.2
20260505053055 65 178 2.0 4.0 0.00 0.00 0.00 73 1006.1
20260505052556 65 171 2.0 4.0 0.00 0.00 0.00 73 1006.2
20260505052056 65 162 2.0 4.0 0.00 0.00 0.00 72 1006.4
20260505051555 65 160 2.0 4.0 0.00 0.00 0.00 72 1006.4
20260505051057 66 150 2.0 4.0 0.00 0.00 0.00 72 1006.4
20260505050556 66 144 2.0 4.0 0.00 0.00 0.00 72 1006.5
20260505041558 66 161 2.0 5.0 0.00 0.00 0.00 71 1006.9
20260505041057 66 179 2.0 7.0 0.00 0.00 0.00 70 1007.1
20260505040557 67 173 2.0 7.0 0.00 0.00 0.00 70 1006.9
20260505035557 67 148 4.0 9.0 0.00 0.00 0.00 70 1007.0
20260505035100 67 163 5.0 9.0 0.00 0.00 0.00 70 1007.0
20260505034556 67 176 5.0 10.0 0.00 0.00 0.00 69 1007.0
20260505034056 67 174 6.0 10.0 0.00 0.00 0.00 69 1007.1
20260505033556 67 182 5.0 10.0 0.00 0.00 0.00 69 1007.1
20260505033058 67 189 5.0 10.0 0.00 0.00 0.00 68 1007.1
20260505032555 68 176 5.0 9.0 0.00 0.00 0.00 68 1007.3
20260505032056 68 171 5.0 9.0 0.00 0.00 0.00 68 1007.2
20260505031615 68 165 5.0 7.0 0.00 0.00 0.00 67 1007.2
20260505031056 69 178 3.0 7.0 0.00 0.00 0.00 66 1007.3
20260505030559 69 182 3.0 9.0 0.00 0.00 0.00 66 1007.3
20260505030104 69 176 5.0 9.0 0.00 0.00 0.00 65 1007.2
20260505025557 69 160 5.0 9.0 0.00 0.00 0.00 65 1007.2
20260505025057 69 190 6.0 9.0 0.00 0.00 0.00 65 1007.1
20260505024610 69 182 5.0 9.0 0.00 0.00 0.00 65 1007.1
20260505024056 70 175 3.0 8.0 0.00 0.00 0.00 64 1007.1
20260505023556 70 195 4.0 8.0 0.00 0.00 0.00 64 1007.0
20260505023056 70 181 5.0 8.0 0.00 0.00 0.00 63 1006.9
20260505022556 70 169 4.0 8.0 0.00 0.00 0.00 63 1006.7
20260505022056 71 207 4.0 9.0 0.00 0.00 0.00 62 1006.6
20260505021612 71 203 5.0 9.0 0.00 0.00 0.00 62 1006.5
20260505021057 71 186 4.0 10.0 0.00 0.00 0.00 62 1006.4
20260505020557 71 218 5.0 10.0 0.00 0.00 0.00 61 1006.3
20260505020054 72 185 6.0 9.0 0.00 0.00 0.00 60 1006.3
20260505015556 72 183 5.0 10.0 0.00 0.00 0.00 60 1006.3
20260505015056 72 232 5.0 12.0 0.00 0.00 0.00 60 1006.2
20260505014558 72 220 7.0 16.0 0.00 0.00 0.00 59 1006.3
20260505014056 73 196 9.0 16.0 0.00 0.00 0.00 59 1006.1
20260505013558 73 198 7.0 15.0 0.00 0.00 0.00 59 1006.1
20260505013057 73 196 8.0 15.0 0.00 0.00 0.00 58 1006.0
20260505012556 73 223 6.0 13.0 0.00 0.00 0.00 59 1005.9
20260505012058 73 178 7.0 11.0 0.00 0.00 0.00 58 1005.9
20260505011601 73 180 6.0 11.0 0.00 0.00 0.00 58 1005.8
20260505011057 73 196 5.0 11.0 0.00 0.00 0.00 58 1005.6
20260505010556 73 190 5.0 14.0 0.00 0.00 0.00 58 1005.5
20260505010058 74 196 6.0 14.0 0.00 0.00 0.00 57 1005.5
20260505005556 74 227 7.0 13.0 0.00 0.00 0.00 57 1005.4
20260505005056 74 201 6.0 12.0 0.00 0.00 0.00 57 1005.3
20260505004559 74 165 6.0 11.0 0.00 0.00 0.00 56 1005.4
20260505004056 74 206 6.0 10.0 0.00 0.00 0.00 56 1005.2
20260505003555 75 186 6.0 11.0 0.00 0.00 0.00 55 1005.3
20260505003058 75 207 4.0 11.0 0.00 0.00 0.00 55 1005.1
20260505002557 75 163 7.0 13.0 0.00 0.00 0.00 54 1005.0
20260505002057 75 216 7.0 17.0 0.00 0.00 0.00 54 1005.3
20260505001558 75 200 9.0 17.0 0.00 0.00 0.00 53 1005.4
20260505001057 76 184 5.0 17.0 0.00 0.00 0.00 53 1005.4
20260505000556 76 184 8.0 17.0 0.00 0.00 0.00 53 1005.4
20260505000058 76 173 8.0 19.0 0.00 0.00 0.00 52 1005.0
20260504235556 76 171 9.0 19.0 0.00 0.00 0.00 52 1005.0
20260504235056 76 196 9.0 18.0 0.00 0.00 0.00 52 1005.0
20260504234556 76 186 9.0 22.0 0.00 0.00 0.00 52 1004.9
20260504234056 77 192 7.0 22.0 0.00 0.00 0.00 52 1004.9
20260504233557 77 222 10.0 22.0 0.00 0.00 0.00 51 1005.0
20260504233102 77 194 8.0 24.0 0.00 0.00 0.00 51 1005.1
20260504232557 77 226 10.0 24.0 0.00 0.00 0.00 50 1005.1
20260504232057 77 175 11.0 25.0 0.00 0.00 0.00 50 1005.2
20260504231555 77 194 13.0 25.0 0.00 0.00 0.00 49 1005.3
20260504231055 78 169 10.0 23.0 0.00 0.00 0.00 50 1005.3
20260504230556 78 220 14.0 23.0 0.00 0.00 0.00 49 1005.3
20260504230058 78 194 8.0 27.0 0.00 0.00 0.00 49 1005.4
20260504225556 78 188 14.0 27.0 0.00 0.00 0.00 49 1005.3
20260504225056 78 209 12.0 27.0 0.00 0.00 0.00 48 1005.3
20260504224555 78 184 12.0 23.0 0.00 0.00 0.00 47 1005.3
20260504224056 79 167 9.0 22.0 0.00 0.00 0.00 47 1005.2
20260504223556 78 217 13.0 24.0 0.00 0.00 0.00 47 1005.4
20260504223103 79 205 10.0 30.0 0.00 0.00 0.00 46 1005.4
20260504222558 79 219 10.0 30.0 0.00 0.00 0.00 47 1005.3
20260504222055 79 205 14.0 28.0 0.00 0.00 0.00 46 1005.3
20260504221606 79 207 14.0 27.0 0.00 0.00 0.00 46 1005.4
20260504221056 79 190 12.0 27.0 0.00 0.00 0.00 46 1005.3
20260504220557 79 184 14.0 27.0 0.00 0.00 0.00 46 1005.4
20260504220127 80 175 13.0 24.0 0.00 0.00 0.00 46 1005.4
20260504215557 80 164 12.0 24.0 0.00 0.00 0.00 46 1005.5
20260504215059 80 211 14.0 25.0 0.00 0.00 0.00 43 1005.5
20260504214555 80 217 13.0 30.0 0.00 0.00 0.00 44 1005.5
20260504214056 79 251 14.0 30.0 0.00 0.00 0.00 44 1005.5
20260504213556 80 225 12.0 25.0 0.00 0.00 0.00 43 1005.5
20260504213123 79 203 15.0 28.0 0.00 0.00 0.00 43 1005.6
20260504212558 79 230 17.0 31.0 0.00 0.00 0.00 44 1005.9
20260504212055 80 174 14.0 31.0 0.00 0.00 0.00 44 1005.6
20260504211555 80 196 13.0 25.0 0.00 0.00 0.00 46 1005.7
20260504211056 80 177 10.0 29.0 0.00 0.00 0.00 46 1005.8
20260504210557 79 207 14.0 29.0 0.00 0.00 0.00 46 1005.8
20260504205557 80 189 13.0 24.0 0.00 0.00 0.00 44 1006.0
20260504205058 79 194 12.0 24.0 0.00 0.00 0.00 46 1006.0
20260504204606 79 264 16.0 24.0 0.00 0.00 0.00 46 1006.0
20260504204056 79 229 14.0 30.0 0.00 0.00 0.00 46 1006.2
20260504203558 79 209 16.0 30.0 0.00 0.00 0.00 46 1006.1
20260504203058 79 243 15.0 27.0 0.00 0.00 0.00 46 1006.2
20260504202556 79 225 14.0 27.0 0.00 0.00 0.00 46 1006.4
20260504202056 79 184 19.0 27.0 0.00 0.00 0.00 46 1006.4
20260504201608 79 224 12.0 28.0 0.00 0.00 0.00 48 1006.4
20260504201056 79 190 11.0 28.0 0.00 0.00 0.00 46 1006.5
20260504200600 79 211 15.0 23.0 0.00 0.00 0.00 46 1006.5
20260504200108 79 209 10.0 28.0 0.00 0.00 0.00 47 1006.4
20260504195556 78 184 17.0 29.0 0.00 0.00 0.00 48 1006.4
20260504195056 79 244 17.0 29.0 0.00 0.00 0.00 47 1006.5
20260504194556 78 213 16.0 29.0 0.00 0.00 0.00 47 1006.5
20260504194101 78 201 14.0 29.0 0.00 0.00 0.00 47 1006.6
20260504193557 78 202 16.0 29.0 0.00 0.00 0.00 48 1006.7
20260504193056 78 236 18.0 30.0 0.00 0.00 0.00 48 1006.7
20260504192558 78 250 19.0 27.0 0.00 0.00 0.00 48 1006.8
20260504192059 78 223 15.0 27.0 0.00 0.00 0.00 49 1007.0
20260504191557 79 216 13.0 27.0 0.00 0.00 0.00 47 1007.0
20260504191056 78 207 15.0 25.0 0.00 0.00 0.00 48 1007.0
20260504190556 78 215 13.0 28.0 0.00 0.00 0.00 49 1006.9
20260504190058 78 241 19.0 30.0 0.00 0.00 0.00 49 1007.0
20260504185556 78 213 17.0 30.0 0.00 0.00 0.00 49 1007.0
20260504185055 78 207 16.0 30.0 0.00 0.00 0.00 49 1007.0
20260504184559 77 207 15.0 32.0 0.00 0.00 0.00 50 1007.1
20260504184056 77 209 19.0 32.0 0.00 0.00 0.00 49 1007.2
20260504183558 77 230 16.0 31.0 0.00 0.00 0.00 49 1007.2
20260504183101 77 209 18.0 31.0 0.00 0.00 0.00 48 1007.2
20260504182556 77 227 18.0 30.0 0.00 0.00 0.00 49 1007.2
20260504182056 77 202 17.0 30.0 0.00 0.00 0.00 50 1007.3
20260504181559 77 154 18.0 32.0 0.00 0.00 0.00 49 1007.4
20260504181056 76 267 20.0 32.0 0.00 0.00 0.00 49 1007.2
20260504180557 77 218 18.0 32.0 0.00 0.00 0.00 49 1007.3
20260504180100 77 227 17.0 33.0 0.00 0.00 0.00 49 1007.4
20260504175556 77 190 17.0 33.0 0.00 0.00 0.00 49 1007.5
20260504175056 76 215 17.0 30.0 0.00 0.00 0.00 48 1007.4
20260504174557 76 138 20.0 30.0 0.00 0.00 0.00 50 1007.5
20260504174056 76 203 19.0 35.0 0.00 0.00 0.00 50 1007.6
20260504173556 76 228 19.0 35.0 0.00 0.00 0.00 49 1007.6
20260504173112 76 212 17.0 31.0 0.00 0.00 0.00 49 1007.4
20260504172556 76 224 20.0 31.0 0.00 0.00 0.00 49 1007.6
20260504172057 76 205 22.0 32.0 0.00 0.00 0.00 50 1007.7
20260504171611 76 246 13.0 32.0 0.00 0.00 0.00 51 1007.7
20260504171057 76 228 18.0 30.0 0.00 0.00 0.00 51 1007.7
20260504170556 75 204 17.0 32.0 0.00 0.00 0.00 49 1007.8
20260504170109 75 209 18.0 32.0 0.00 0.00 0.00 50 1007.8
20260504160110 73 221 21.0 29.0 0.00 0.00 0.00 51 1008.5
20260504151056 71 199 15.0 29.0 0.00 0.00 0.00 54 1008.9
20260504150556 71 211 15.0 26.0 0.00 0.00 0.00 53 1008.9
20260504141058 68 228 20.0 31.0 0.00 0.00 0.00 56 1009.8
20260504140556 68 224 17.0 27.0 0.00 0.00 0.00 58 1009.8
20260504130557 64 215 10.0 17.0 0.00 0.00 0.00 62 1010.4